星链-34851(STARLINK-34851)

导读

STARLINK-34851是美国SpaceX星链互联网卫星项目的一员,于2025年11月11日发射升空。星链项目旨在构建全球卫星互联网星座,为全球范围提供高速低延迟互联网络,该卫星入轨后将和其他星链卫星协同工作,补充完善星座组网,提升服务覆盖能力与连接稳定性。

基本信息
目录编号:
66447
目录名称:
STARLINK-34851
国际标识:
2025-259AB
轨道中心:
EARTH
卫星名称:
星链-34851
卫星全名:
星链-34851(STARLINK-34851)
卫星状态:
在轨 (已飞行214 天)
发射日期:
2025-11-11 UTC
国别 :
美国 (US)
星等 :
--
轨道信息
数据来源 国际轨道数据
星历时间: 2026-06-11T21:35:49+0800
1天前
查看轨道信息
半长轴: 6861.131km
偏心率: 0.0004238
轨道倾角: 43.003°
近地点辐角 263.341°
升交点赤经 104.596°
平近点角 96.696°
近地点: 480.086km
远地点: 485.902km
周期: 94.266分钟
每日圈数: 15.275986
详细信息
固有亮度:
5
最大亮度:
2.5
卫星平台:
Starlink V1.0
覆盖范围:
全球
运营商:
太空探索技术公司
运营商所在国:
美国
制造商(研发单位):
太空探索技术公司
制造商所在国:
美国
使用方式:
暂无
卫星简介
Starlink 计划是 SpaceX 推出的全球卫星互联网项目,通过发射低轨道卫星,为全球尤其是偏远地区提供高速、低延迟的互联网服务。自 2019 年起,Starlink 已部署数千颗卫星,旨在缩小全球数字鸿沟,推动互联网普及。该项目还为军事、航空等行业提供通信支持,带来广泛经济效益。
2D轨道图
3D轨道图
轨道高度分析图
轨道倾角分析图
轨道综合分析图
查看轨道综合分析图